Weather History for CYTZ - May, 2013

Change the Weather History Date:

Friday, May 3, 2013

  Actual Average Record
Temperature  
Mean Temperature 60 °F -  
Max Temperature 65 °F 62 °F 71 °F (2001)
Min Temperature 54 °F 47 °F 35 °F (2005)
Degree Days  
Heating Degree Days 6    
Growing Degree Days 10 (Base 50)    
Moisture  
Dew Point 42 °F    
Average Humidity 52    
Maximum Humidity 63    
Minimum Humidity 34    
Precipitation  
Precipitation 0.00 in 0.09 in - ()
Sea Level Pressure  
Sea Level Pressure 30.25 in    
Wind  
Wind Speed 12 mph ()    
Max Wind Speed 18 mph    
Max Gust Speed -    
Visibility 9.1 miles    
Events      
Averages and records for this station are not official NWS values.
T = Trace of Precipitation, MM = Missing Value Source: Averaged Metar Reports

Daily Weather History Graph

Daily Weather History Graph

Search for Another Location

Airport or City:

Trip Planner

Search our weather history database for the weather conditions in past years. The results will help you decide how hot, cold, wet, or windy it might be!

Date:

Astronomy

May. 03, 2013 Rise Set
Actual Time 6:06 AM EDT 8:22 PM EDT
Civil Twilight 5:35 AM EDT 8:54 PM EDT
Nautical Twilight 4:56 AM EDT 9:33 PM EDT
Astronomical Twilight 4:12 AM EDT 10:17 PM EDT
Moon 2:42 AM EDT (5/3) 2:04 PM EDT (5/3)
Length of Visible Light 15h 19m
Length of Day
14h 15m
Last Quarter, 37% of the Moon is Illuminated
May 3
Last Quarter
May 9
New
May 18
First Quarter
May 25
Full
May 31
Last Quarter

Hourly Weather History & Observations

Time (EDT) Temp. Dew Point Humidity Pressure Visibility Wind Dir Wind Speed Gust Speed Precip Events Conditions
12:00 AM 59.0 °F 37.4 °F 45% 30.24 in 9.0 mi ENE 16.1 mph - N/A   Clear
1:00 AM 57.2 °F 39.2 °F 51% 30.25 in 9.0 mi ENE 13.8 mph - N/A   Clear
2:00 AM 56 °F 41 °F 45% 30.25 in 10 mi ENE 9.2 mph - -  
2:00 AM 57.2 °F 41.0 °F 55% 30.25 in 9.0 mi ENE 9.2 mph - N/A   Clear
3:00 AM 57.2 °F 39.2 °F 51% 30.25 in 9.0 mi ENE 9.2 mph - N/A   Clear
4:00 AM 55.4 °F 42.8 °F 63% 30.26 in 9.0 mi ENE 11.5 mph - N/A   Clear
5:00 AM 55.4 °F 42.8 °F 63% 30.26 in 9.0 mi ENE 9.2 mph - N/A   Clear
6:00 AM 55.4 °F 41.0 °F 58% 30.27 in 9.0 mi East 10.4 mph - N/A   Clear
7:00 AM 57.2 °F 39.2 °F 51% 30.28 in 9.0 mi ENE 10.4 mph - N/A   Clear
8:00 AM 58 °F 41 °F 41% 30.28 in 10 mi East 10.4 mph - -  
8:00 AM 57.2 °F 41.0 °F 55% 30.28 in 9.0 mi East 11.5 mph - N/A   Clear
9:00 AM 57.2 °F 41.0 °F 55% 30.29 in 9.0 mi ENE 11.5 mph - N/A   Clear
10:00 AM 57.2 °F 41.0 °F 55% 30.29 in 9.0 mi East 13.8 mph - N/A   Clear
11:00 AM 59.0 °F 41.0 °F 51% 30.29 in 9.0 mi East 13.8 mph - N/A   Partly Cloudy
12:00 PM 59.0 °F 42.8 °F 55% 30.29 in 9.0 mi East 11.5 mph - N/A   Clear
1:00 PM 57.2 °F 42.8 °F 59% 30.27 in 9.0 mi East 15.0 mph - N/A   Clear
2:00 PM 58 °F 42 °F 45% 30.27 in 10 mi East 13.8 mph - -  
2:00 PM 57.2 °F 42.8 °F 59% 30.27 in 9.0 mi East 15.0 mph - N/A   Partly Cloudy
3:00 PM 60.8 °F 42.8 °F 52% 30.26 in 9.0 mi East 13.8 mph - N/A   Partly Cloudy
4:00 PM 60.8 °F 42.8 °F 52% 30.24 in 9.0 mi East 15.0 mph - N/A   Clear
5:00 PM 62.6 °F 44.6 °F 52% 30.23 in 9.0 mi ENE 13.8 mph - N/A   Clear
6:00 PM 64.4 °F 42.8 °F 45% 30.22 in 9.0 mi ENE 18.4 mph - N/A   Clear
7:00 PM 62.6 °F 42.8 °F 48% 30.20 in 9.0 mi ENE 18.4 mph - N/A   Clear
8:00 PM 62 °F 41 °F 34% 30.21 in 10 mi ENE 18.4 mph - -  
8:00 PM 62.6 °F 41.0 °F 45% 30.21 in 9.0 mi ENE 17.3 mph - N/A   Clear
9:00 PM 57.2 °F 42.8 °F 59% 30.22 in 9.0 mi ENE 18.4 mph - N/A   Clear
10:00 PM 57.2 °F 42.8 °F 59% 30.22 in 9.0 mi ENE 17.3 mph - N/A   Clear
11:00 PM 55.4 °F 42.8 °F 63% 30.22 in 9.0 mi ENE 15.0 mph - N/A   Clear